GFSNW_con_3kmhel_273.txt.gz
Helicity
50 48 51 43 39 -14 -189 153 188 186 267 284 217 273 331 191 166 169 154 140 110 149 147 118 108 60 54 82 145 139 58 71 95 52 41 38 56 65 85 97 55 91 116 45
77 78 81 67 69 -50 -149 247 267 281 175 294 175 248 225 170 210 170 174 159 91 161 110 125 90 167 77 90 85 101 63 78 140 56 43 40 41 65 94 121 108 108 143 70
92 93 115 114 107 -62 -61 156 309 333 232 339 271 366 195 158 200 202 201 172 196 251 203 150 163 184 76 70 100 76 52 49 59 61 50 67 46 128 124 141 125 105 144 102
83 105 127 117 74 -24 13 123 241 630 461 258 234 277 158 163 318 266 219 219 205 252 201 152 133 144 147 162 99 76 47 22 34 45 42 53 61 80 195 196 153 160 89 128
92 115 131 95 36 5 5 113 197 362 262 315 287 371 101 269 382 350 271 215 190 244 136 122 160 170 144 134 83 72 48 37 49 35 20 38 52 87 196 231 208 148 138 66
70 129 123 51 -16 74 -61 -38 221 395 381 458 401 279 204 311 342 311 242 145 246 195 107 96 135 156 105 39 109 77 72 56 72 60 67 71 8 110 156 263 252 248 224 205
65 133 103 28 -26 36 39 30 315 376 460 537 420 304 282 336 367 338 196 201 259 174 255 264 136 82 104 92 36 65 78 61 71 87 87 58 31 49 62 118 140 310 232 259
65 113 130 21 -22 15 -59 -100 215 388 309 458 373 269 311 335 314 217 179 251 253 342 346 254 191 154 109 12 10 2 66 83 75 88 70 19 -4 91 93 90 33 105 179 209
69 122 68 49 -35 26 -264 -51 275 556 361 251 325 370 342 378 307 208 237 303 303 359 351 187 110 60 75 58 64 18 30 66 81 82 71 31 24 68 130 123 35 25 55 92
144 138 84 52 29 -31 -23 13 243 510 369 261 345 387 356 401 385 410 443 374 285 285 234 172 116 64 59 82 130 125 120 126 106 79 64 18 49 169 137 83 42 62 78 132
159 90 84 104 93 -2 -17 158 203 225 342 288 353 408 405 437 466 636 434 443 285 237 190 149 110 69 68 101 66 117 188 177 145 102 78 4 91 208 93 45 68 117 150 182
130 111 99 106 86 -135 0 145 298 321 249 368 433 371 363 452 511 614 438 205 372 193 199 134 154 113 153 119 92 140 116 149 91 63 22 41 76 65 57 85 78 117 121 147
139 109 81 144 46 -107 133 183 161 314 407 630 394 546 194 348 434 439 436 280 271 181 190 184 150 135 152 127 114 163 56 71 82 67 13 36 33 78 83 73 90 116 138 172
128 104 113 158 49 -7 126 355 154 453 631 628 588 324 250 272 270 183 237 210 218 205 221 178 118 108 74 80 85 200 152 118 80 34 10 64 44 81 140 117 87 122 152 189
113 95 165 162 -33 63 166 210 406 497 461 622 580 387 342 234 167 215 166 208 207 206 221 138 101 123 114 102 148 122 185 121 160 78 52 116 41 63 100 153 167 171 192 234
104 100 178 110 61 74 117 396 367 254 346 913 798 519 374 318 263 228 205 200 205 178 162 146 136 148 133 81 130 89 79 124 141 75 32 51 36 117 82 121 121 185 229 242
85 136 178 -24 11 128 414 249 268 419 443 678 728 538 363 281 284 259 224 195 154 157 144 117 94 119 135 102 148 23 12 21 56 97 61 88 144 127 118 105 105 135 236 230
91 138 200 101 85 394 518 428 467 378 414 513 483 382 274 228 281 274 200 212 204 193 122 132 136 148 127 52 95 68 -49 -41 -28 74 117 118 123 145 126 97 102 145 204 248
98 279 367 275 341 506 490 611 370 236 215 214 250 386 362 225 291 275 284 197 162 119 112 91 105 110 49 34 41 24 -10 -14 31 10 64 144 177 141 168 167 121 141 188 278
311 478 489 511 600 464 524 496 465 389 329 218 240 337 324 347 361 257 191 134 102 70 51 90 74 50 116 178 162 82 -4 -4 18 49 79 169 184 196 180 173 153 119 157 286
722 511 418 440 820 653 522 425 404 367 375 280 260 251 389 357 336 302 171 122 112 71 58 81 14 2 105 121 172 184 71 -9 7 37 79 137 174 176 161 161 171 191 224 294
518 495 502 695 573 437 263 318 343 336 291 280 236 248 387 357 247 171 157 146 121 56 71 60 5 21 40 44 66 97 86 -12 -25 64 136 114 138 187 192 178 181 207 234 312
507 620 501 389 333 253 255 446 432 179 245 270 347 344 434 349 284 199 168 128 95 102 58 22 20 42 84 79 66 76 55 35 -50 71 119 124 146 194 217 207 228 265 277 293
603 553 444 292 331 233 258 313 426 374 292 368 453 591 387 409 299 143 159 138 131 80 56 16 35 53 48 52 84 78 67 62 35 106 155 137 170 187 212 254 270 276 248 216
439 300 451 277 368 266 246 331 434 315 420 529 511 481 374 367 247 220 179 159 113 50 22 46 50 43 70 103 76 67 50 65 96 158 210 228 255 268 264 247 259 269 243 217
314 208 308 301 267 271 302 284 355 393 476 505 405 349 291 337 176 193 168 129 67 67 39 43 67 100 61 53 60 57 49 41 79 189 240 266 283 286 284 266 260 213 197 187
426 368 375 288 309 259 255 241 376 363 465 510 417 356 333 238 228 176 148 92 81 59 46 57 58 66 53 72 73 49 41 59 148 234 239 255 282 309 302 263 162 152 126 130

GFSNW_con_3kmhel_276.txt.gz
Helicity
30 24 9 24 6 -12 23 46 79 205 70 296 278 270 335 329 207 197 193 128 161 169 159 157 144 58 41 79 131 146 79 78 118 60 38 45 66 63 89 88 45 81 102 51
30 27 19 29 36 40 33 -144 196 296 185 329 166 234 229 238 266 203 189 148 148 157 187 139 136 114 67 89 129 121 85 90 155 68 43 41 57 73 96 118 102 88 130 69
31 34 28 37 75 36 94 -152 183 276 214 131 174 264 168 108 222 175 189 166 194 243 194 168 178 161 100 80 135 111 146 97 69 60 33 57 66 92 108 126 116 114 117 91
43 38 43 61 94 63 124 20 96 269 50 170 88 200 161 129 248 189 183 191 186 225 220 192 139 182 183 139 119 139 77 80 67 41 60 47 46 82 114 134 145 145 62 108
54 55 54 90 119 121 190 -19 278 239 300 127 135 194 172 88 105 231 253 182 192 238 159 104 126 203 158 88 110 100 83 65 62 23 32 10 30 82 138 135 148 122 135 69
78 69 76 112 165 262 190 118 89 189 173 103 219 182 207 135 142 247 221 204 297 216 125 97 118 168 184 51 193 149 91 78 62 21 27 40 -31 140 219 138 114 159 149 129
87 85 99 157 203 214 257 196 176 177 163 171 94 104 191 121 220 220 329 301 290 221 188 235 223 194 131 72 88 133 115 93 55 61 81 38 37 61 129 192 184 245 168 163
104 101 123 175 201 179 307 295 274 270 200 93 146 154 198 173 288 271 268 300 227 264 342 272 168 173 131 93 72 73 71 111 58 70 48 -2 -0 43 115 89 19 164 173 156
115 114 126 188 180 188 282 284 249 148 176 151 259 237 213 326 291 357 329 284 249 384 319 206 87 42 73 66 82 -12 33 39 49 98 59 22 20 39 93 92 26 35 97 120
119 115 129 182 175 203 274 176 148 157 126 272 233 259 400 339 411 405 460 419 374 339 248 187 90 81 71 40 81 131 130 110 90 92 53 -12 3 61 86 80 31 36 78 103
131 118 132 146 167 178 255 111 30 61 249 427 246 265 452 440 420 532 451 472 391 316 181 127 78 68 77 85 46 97 183 182 132 123 98 -21 59 125 65 33 39 70 90 120
156 126 126 93 126 92 95 -98 -48 -171 131 409 345 230 354 387 599 706 603 370 375 200 222 153 118 94 133 114 59 72 83 139 99 92 27 22 7 24 39 51 77 82 138 129
161 105 83 67 40 19 47 -8 -16 -50 107 402 270 296 270 303 357 471 472 410 374 308 262 186 131 118 147 103 71 94 46 143 83 87 12 -1 -18 24 60 67 73 71 113 145
107 62 51 62 45 90 67 -213 -55 -4 240 238 454 439 374 338 427 428 357 498 392 277 254 204 109 88 90 82 66 117 136 184 165 33 -32 51 -2 32 60 59 91 105 132 159
56 16 69 63 56 108 47 38 -31 -116 197 378 506 508 521 366 409 348 322 333 337 252 201 126 91 81 92 110 116 69 210 219 232 98 40 70 4 27 52 112 137 144 191 172
42 97 78 31 83 92 164 -39 -150 25 145 566 595 540 485 268 336 265 258 287 244 189 124 117 94 105 104 48 38 82 140 223 187 74 6 -21 22 20 73 113 126 172 213 220
125 92 90 90 132 134 79 42 166 101 294 609 788 621 448 279 305 324 317 284 197 134 152 123 99 101 127 85 54 66 20 94 120 81 69 3 27 16 44 74 105 183 208 249
99 105 93 128 70 78 -29 52 188 434 481 655 661 584 390 272 390 321 284 252 229 209 135 135 103 116 154 33 15 57 82 46 23 62 71 43 34 54 70 57 119 146 186 237
133 106 61 86 120 -64 66 267 432 389 344 544 560 595 497 340 444 369 321 234 225 183 129 117 87 76 10 -27 21 28 -16 67 81 33 32 52 145 133 118 128 121 138 151 262
133 174 223 227 73 99 214 437 480 591 615 411 452 626 505 363 443 398 326 252 168 78 81 98 24 -32 12 43 76 32 40 14 46 75 132 102 98 174 161 156 138 114 158 270
312 139 164 135 147 405 460 436 454 450 445 506 472 439 564 441 444 449 254 186 137 69 57 86 -39 -66 7 46 63 91 81 84 91 65 47 69 89 148 171 143 142 152 213 265
139 233 401 299 415 467 278 322 301 329 273 310 339 347 498 466 301 250 241 167 128 53 101 82 -25 -49 21 16 24 52 126 137 167 153 107 54 62 123 162 172 168 192 228 327
262 581 421 270 321 238 284 428 377 270 326 292 311 323 407 423 349 229 183 112 109 114 90 22 2 40 38 51 59 45 84 111 130 134 91 58 68 116 196 209 188 258 302 319
445 342 364 424 380 289 297 294 295 317 195 242 331 515 285 351 306 174 122 144 120 93 25 -1 27 18 7 26 63 109 78 72 74 113 114 97 108 117 153 206 239 318 316 288
278 210 364 273 287 257 248 305 345 251 402 510 605 441 326 340 176 184 180 150 109 26 6 37 37 34 44 58 73 97 103 80 42 93 149 140 158 169 182 190 232 254 288 282
239 174 232 251 230 215 307 307 305 267 488 534 451 303 212 185 200 178 148 112 41 38 29 23 52 64 82 80 79 84 83 63 43 47 132 180 209 202 197 227 225 242 246 215
301 302 282 211 186 143 205 252 325 343 373 330 247 200 164 164 156 169 176 124 93 61 32 41 27 51 50 46 64 74 75 71 80 125 173 214 233 283 287 235 167 174 156 150

GFSNW_con_3kmhel_279.txt.gz
Helicity
24 41 38 28 26 2 49 75 36 88 45 173 115 177 337 387 336 209 182 172 137 160 191 172 165 76 68 79 123 134 91 88 103 100 71 47 55 56 103 81 45 87 98 39
35 30 41 29 44 49 93 38 189 170 192 211 152 178 208 226 282 210 188 139 107 148 173 132 141 88 101 76 131 95 84 99 132 94 56 60 53 86 124 121 95 87 113 47
35 35 39 31 58 49 121 48 106 199 128 224 248 152 196 166 239 243 122 118 116 145 161 197 157 161 138 101 123 127 147 108 72 57 25 54 92 113 147 146 113 107 101 72
32 43 39 34 61 58 148 117 155 248 220 231 175 237 167 132 158 191 142 163 134 160 180 204 146 208 209 144 121 148 131 61 83 32 18 29 35 79 160 151 144 113 54 98
44 53 56 51 72 68 157 92 185 219 188 189 132 242 99 171 110 202 176 134 160 170 120 145 159 213 172 109 119 148 150 56 101 62 25 13 14 53 119 113 108 57 70 33
63 67 75 72 78 122 169 141 176 234 168 219 135 172 197 113 134 173 222 120 204 145 75 119 155 178 153 51 143 195 135 112 101 72 35 24 -43 113 198 151 116 165 110 97
59 81 86 77 89 151 253 158 148 216 287 223 152 130 101 96 80 197 163 194 212 156 143 220 282 242 154 121 155 185 173 148 106 76 103 74 27 44 97 176 132 161 62 98
64 81 88 91 104 141 285 170 151 118 233 140 163 126 164 142 111 76 127 187 154 115 333 243 173 186 113 99 96 130 109 140 121 102 74 -15 6 55 93 50 13 157 167 119
31 80 91 98 108 128 267 192 137 147 109 82 181 106 70 137 149 180 185 216 222 326 269 200 107 58 64 49 91 135 159 132 121 108 80 51 19 53 104 77 -13 32 86 73
32 84 94 102 115 127 248 220 146 166 67 181 113 58 70 201 286 209 221 370 363 323 232 190 107 90 60 33 62 132 165 130 114 122 72 1 12 56 77 76 25 28 54 63
75 96 103 115 126 141 228 189 161 141 91 191 135 169 98 271 293 334 296 419 361 321 200 136 82 53 43 68 53 83 169 173 152 123 97 7 69 148 101 33 35 37 38 60
90 102 117 123 128 133 194 166 160 190 122 159 135 105 230 141 286 438 470 296 370 242 221 143 118 95 96 94 65 127 67 126 72 95 12 34 8 49 31 43 54 38 59 62
121 104 126 136 131 142 212 213 165 214 107 -31 59 108 197 218 163 323 449 429 353 334 323 202 155 88 139 97 78 125 77 130 67 100 30 31 3 -86 -1 23 45 40 55 105
138 128 127 142 118 134 224 264 186 245 122 108 184 97 113 140 192 373 261 423 463 347 343 257 125 73 39 49 64 109 129 148 144 72 8 6 -6 -21 -21 20 52 69 89 91
151 141 139 121 118 144 273 325 158 170 171 105 84 294 279 286 270 283 244 383 401 362 291 154 75 60 51 99 92 74 181 176 230 127 12 107 -22 48 42 55 69 82 111 106
166 150 126 114 144 193 438 237 189 107 -45 467 298 300 326 412 336 338 250 355 344 304 168 129 93 87 94 10 20 37 85 194 264 170 43 -27 -12 16 78 93 59 73 138 154
165 117 141 136 196 360 316 341 50 -23 26 -115 308 369 579 401 447 416 322 312 294 187 174 101 78 108 111 44 24 -8 -2 62 127 153 162 59 -6 3 25 61 70 112 136 167
126 152 149 160 178 247 23 69 -20 -54 112 -170 117 355 515 531 524 415 357 266 298 222 117 109 79 112 90 5 -16 32 44 72 101 140 127 45 21 20 40 54 101 119 132 169
188 186 170 261 186 -11 -54 -1 31 79 270 -69 59 406 639 545 527 458 384 280 245 169 94 65 60 86 38 -9 -11 55 41 70 57 66 51 43 55 53 29 60 78 92 125 195
231 283 263 182 154 32 84 -45 87 104 174 61 107 528 543 450 545 499 370 280 173 73 49 55 34 7 0 33 45 48 40 22 81 124 116 94 63 80 85 83 100 91 123 195
366 335 234 103 85 149 61 38 83 155 158 238 332 414 727 629 655 568 381 258 152 48 62 98 -15 -81 -36 46 96 43 26 68 66 63 82 102 99 97 78 99 109 111 152 173
358 327 272 296 156 86 46 47 94 244 241 422 455 542 737 755 474 351 316 227 144 82 95 93 -27 -85 -24 59 62 39 44 103 146 136 130 116 104 89 103 128 138 139 141 202
529 485 219 206 186 90 37 233 225 278 391 476 590 569 752 693 462 279 267 171 150 138 102 49 -77 1 60 69 69 47 41 68 104 143 154 142 69 68 92 104 138 210 208 196
352 149 215 152 47 174 159 119 265 355 343 542 652 787 531 524 375 176 192 177 139 128 64 7 9 -1 22 51 64 57 49 49 69 105 143 91 48 71 75 131 225 276 253 233
217 260 128 149 175 130 154 251 400 382 466 620 691 746 510 509 301 219 192 147 145 61 23 41 49 50 76 60 64 61 61 50 47 67 51 14 31 73 99 128 188 225 280 287
254 172 109 156 212 304 376 368 346 331 488 619 643 493 362 293 175 140 157 91 63 54 9 45 80 74 77 79 59 46 55 63 58 47 41 70 83 77 67 127 152 180 220 227
155 169 121 138 180 232 276 283 392 402 476 464 427 257 221 183 125 140 105 111 126 56 72 62 51 64 67 57 44 42 47 46 38 43 58 73 84 118 149 120 85 109 127 141

GFSNW_con_3kmhel_282.txt.gz
Helicity
61 55 50 46 42 12 61 3 35 59 106 115 82 171 310 343 288 236 287 247 181 165 200 204 183 107 88 95 150 156 114 99 102 127 103 96 101 69 104 115 67 92 83 33
52 42 40 45 42 48 65 -4 35 67 198 93 120 119 306 237 289 224 244 193 171 114 151 151 155 117 132 81 131 98 89 103 123 111 83 95 82 94 137 154 104 72 113 43
28 34 30 43 37 45 90 27 56 122 145 16 93 183 197 296 263 207 172 155 152 151 166 171 161 160 132 99 125 118 117 92 77 67 35 52 86 122 153 164 130 128 118 63
18 23 30 24 38 33 116 86 62 86 184 159 127 230 255 237 337 261 192 173 118 126 148 206 177 188 213 168 117 135 106 69 95 74 39 36 31 70 156 175 188 137 66 106
14 25 34 34 42 40 152 96 68 78 145 95 126 170 111 192 218 282 281 176 133 116 50 78 95 147 157 107 138 145 153 80 96 80 43 13 7 29 88 105 115 50 49 -8
17 30 40 51 58 96 196 175 116 81 128 128 -57 105 99 114 88 234 164 180 180 141 83 96 119 150 137 69 129 178 143 129 83 45 50 31 -41 79 185 143 131 167 116 92
22 33 50 59 68 89 177 180 129 70 147 236 216 191 104 128 98 51 213 132 183 114 43 152 235 216 181 162 166 157 134 159 112 51 68 53 23 30 90 207 116 172 58 53
13 43 58 68 75 95 217 149 139 80 78 151 218 157 178 165 221 112 98 125 70 -32 203 193 165 186 121 129 127 130 116 138 100 84 65 -15 -35 46 112 101 15 184 117 68
15 42 70 60 64 90 197 157 116 78 68 23 90 177 90 157 145 121 147 140 120 234 192 168 111 72 74 65 89 139 165 160 121 102 73 31 11 33 70 79 5 33 91 94
37 59 65 66 62 84 201 166 147 80 53 161 95 94 181 264 203 207 286 256 255 213 181 152 107 94 68 46 25 64 152 158 129 154 100 6 25 59 71 98 34 41 60 90
40 57 65 73 79 88 199 153 155 116 58 155 209 205 200 115 178 170 101 244 207 211 188 133 101 73 70 72 31 20 125 119 140 162 143 36 97 186 119 45 44 49 53 62
35 59 70 77 81 92 160 187 167 152 41 129 100 89 166 102 138 147 304 235 222 184 198 169 112 94 78 71 40 95 57 107 51 80 33 38 12 78 45 55 52 42 61 41
19 46 57 67 89 106 159 269 241 206 51 18 88 112 123 138 110 179 171 179 148 187 246 199 125 89 119 73 49 73 45 122 89 89 27 67 30 -44 23 21 26 46 50 56
45 58 69 76 91 103 154 275 221 203 89 16 105 84 133 145 164 85 123 203 271 267 227 170 102 77 49 33 37 93 75 131 130 71 21 28 23 37 -6 -2 34 79 65 44
84 79 95 78 91 97 196 288 167 143 149 91 72 61 77 78 69 81 73 119 248 310 166 130 102 90 66 94 51 36 133 138 160 89 -14 35 16 33 81 74 58 58 79 63
107 108 102 79 107 109 327 247 152 86 94 47 207 142 122 72 70 88 99 187 231 155 84 58 68 97 72 -29 -29 -28 77 161 208 142 98 11 22 53 73 115 78 59 71 73
132 131 115 101 122 275 302 194 62 162 169 106 129 150 105 68 162 259 258 278 148 141 151 94 60 92 84 -9 -39 -6 -18 19 43 75 188 127 102 24 50 53 90 99 66 76
173 148 118 117 134 289 316 233 -15 135 227 81 199 240 134 266 261 271 337 258 243 242 163 162 63 81 74 -63 -93 -13 47 46 27 98 142 81 54 36 41 57 122 137 97 108
211 161 124 192 279 309 344 187 111 214 193 74 159 186 162 334 430 347 395 280 277 255 217 132 80 77 -25 -91 -83 -18 72 51 49 77 118 101 75 55 56 87 95 100 83 122
238 243 215 292 322 197 309 508 219 128 166 114 -3 132 273 395 508 519 474 347 290 165 181 124 4 -25 -45 -37 -41 7 10 -2 76 98 77 98 90 90 106 109 93 62 72 125
409 351 252 288 451 444 278 208 190 149 71 -41 -78 88 282 440 422 516 378 373 312 179 144 111 -60 -142 -116 -34 25 22 -27 -22 35 15 27 117 138 143 107 80 74 83 133 136
429 348 441 560 410 281 256 255 203 188 156 18 20 124 237 412 365 342 306 363 333 135 155 60 -117 -192 -85 -28 58 107 63 69 151 96 63 75 100 111 124 88 71 89 101 135
438 609 489 401 295 293 240 222 229 215 176 124 56 149 236 348 516 407 379 315 218 186 83 -23 -168 -83 -18 70 118 68 46 43 102 177 179 155 115 105 97 74 54 123 144 142
559 453 395 450 406 272 156 36 9 46 157 138 220 468 271 562 508 273 301 276 218 154 14 -47 -55 -32 56 87 118 91 57 63 75 97 140 153 134 88 35 36 98 164 145 150
360 331 313 181 63 42 50 100 98 75 193 322 411 487 376 566 370 306 224 191 129 -2 13 12 -34 34 100 95 78 55 52 60 69 84 101 108 94 61 17 11 50 104 178 198
83 57 102 105 50 106 116 146 219 219 328 480 518 482 377 451 222 249 190 85 46 8 13 53 38 61 61 65 55 50 55 63 72 74 82 77 51 32 14 38 57 99 155 187
11 96 167 131 67 84 92 117 248 385 444 442 401 274 292 233 261 191 145 121 147 -11 65 59 88 98 94 85 76 64 68 73 58 69 64 37 57 91 108 93 71 97 112 139

GFSNW_con_3kmhel_288.txt.gz
Helicity
64 26 12 37 77 76 65 59 43 38 -20 29 46 15 103 98 365 112 150 243 165 99 117 127 125 126 189 142 203 217 240 160 123 70 110 104 63 68 86 55 57 64 54 16
33 17 31 57 73 44 73 59 32 21 22 77 29 -8 -36 104 348 209 115 173 168 125 101 137 136 170 217 121 142 160 158 133 125 66 71 75 74 95 110 111 56 45 59 35
29 28 46 57 69 51 70 65 46 15 25 34 146 13 16 122 144 334 127 116 88 77 84 134 103 196 206 138 143 173 129 119 96 76 90 75 78 103 118 112 55 73 69 37
24 19 43 48 54 47 74 75 36 62 104 111 94 247 55 89 202 303 204 165 96 97 149 131 106 166 177 139 140 173 118 93 99 93 77 41 34 43 88 159 137 60 46 56
5 15 42 36 39 50 75 79 56 9 68 99 162 178 94 189 143 340 247 185 88 88 92 119 29 95 135 161 117 124 86 73 74 53 45 36 33 44 71 75 68 72 23 -2
-2 11 38 32 27 57 66 70 71 48 47 102 110 214 68 116 88 361 227 143 104 196 184 143 87 94 93 39 112 121 69 74 68 50 36 19 6 81 128 113 61 80 67 72
4 17 22 10 37 39 68 64 48 35 66 81 118 201 227 17 81 252 338 210 243 136 46 110 188 182 169 98 117 119 113 85 84 43 24 10 44 38 23 83 24 97 58 36
24 29 38 12 60 58 10 49 64 37 62 65 129 187 223 88 -22 220 344 423 279 -12 93 163 211 261 225 189 175 139 93 102 79 51 26 35 7 40 55 54 9 75 110 37
33 46 43 42 50 36 27 30 33 44 38 46 98 185 200 -54 71 87 180 300 107 257 209 184 183 205 191 177 189 171 128 117 77 45 38 29 51 22 18 13 20 28 21 34
5 1 10 27 30 21 20 35 46 40 21 33 81 23 149 84 72 39 186 295 217 154 165 182 206 187 169 111 119 133 135 82 49 46 39 42 35 48 -7 26 43 15 -1 37
11 -3 -10 -6 28 15 3 4 62 34 18 30 33 47 25 48 276 172 58 201 257 198 166 148 190 169 144 152 99 104 99 61 53 44 38 57 49 61 18 23 9 7 16 24
36 3 -11 -7 16 4 -15 45 63 54 34 47 48 42 -7 -85 22 322 210 284 226 225 218 226 192 183 143 121 148 89 70 44 40 18 41 36 21 12 16 8 16 43 40 38
48 22 2 -4 16 1 7 65 68 103 39 -7 20 66 6 -78 -73 113 181 118 235 197 189 143 115 137 124 116 91 82 47 42 51 43 30 59 49 33 12 5 -15 21 31 40
16 4 24 16 36 22 37 97 121 128 54 9 1 1 -53 -52 -2 118 150 194 240 235 207 231 192 99 67 72 62 79 80 40 40 58 69 69 60 69 61 60 24 24 30 36
17 10 54 54 59 51 100 129 128 129 92 45 -23 -7 19 -21 -64 86 160 153 167 174 123 131 111 84 29 44 69 69 62 53 53 53 11 42 29 -11 20 87 101 53 28 44
18 23 46 45 47 73 154 128 124 95 58 36 64 69 64 11 -74 74 178 135 118 152 105 80 88 103 87 -6 9 23 11 37 26 21 8 3 28 1 -19 23 91 80 42 50
27 14 10 32 31 109 210 144 32 183 126 81 -2 109 98 58 -59 -23 108 139 177 196 167 113 76 42 58 36 2 19 3 10 1 0 9 20 13 -12 7 28 51 65 48 65
24 17 15 20 37 149 184 169 64 218 165 74 68 130 196 79 66 30 24 49 93 134 126 123 93 39 53 -13 3 66 39 15 10 17 6 7 31 -16 5 48 73 92 108 122
26 15 15 68 127 217 224 94 13 153 154 102 54 99 246 106 137 87 119 80 141 73 109 82 81 49 21 3 89 78 51 50 48 9 10 -10 -8 1 44 83 86 87 108 131
19 62 85 143 146 150 277 230 175 147 107 90 19 21 169 133 178 187 159 165 96 48 58 98 10 5 14 38 53 44 31 33 44 53 28 -2 -19 23 59 96 69 54 86 120
86 107 137 157 150 286 184 224 162 126 65 26 -14 15 85 137 167 213 204 125 116 44 31 102 -8 -57 -3 51 45 8 32 29 21 30 19 27 32 -1 35 62 65 45 59 108
129 138 122 316 208 205 162 219 225 54 27 -21 11 15 29 126 158 162 204 151 93 28 14 57 -36 -74 -45 -19 30 94 75 69 101 78 41 32 22 49 33 38 59 67 59 62
226 217 282 216 167 188 134 111 141 78 48 -39 50 64 22 61 107 193 125 131 112 103 83 60 -21 -47 -32 58 106 99 86 76 130 124 74 2 -31 9 44 51 60 70 84 91
233 376 313 209 169 116 109 152 143 114 56 -9 65 121 112 106 104 135 127 88 61 25 13 -24 -29 -19 25 53 68 71 45 20 44 34 19 21 31 72 115 95 99 111 145 157
157 397 409 237 186 170 110 109 214 157 77 53 107 108 148 137 191 188 151 87 68 -15 -48 -25 -26 8 8 35 46 74 96 70 53 59 58 41 54 82 144 149 148 106 152 185
243 279 257 218 191 151 147 171 172 217 161 93 117 155 162 95 171 119 128 106 44 -32 -15 -54 11 11 34 50 57 101 152 69 54 60 53 55 71 77 115 169 146 135 141 160
366 253 204 239 216 178 152 155 194 209 198 193 191 178 180 161 129 107 127 88 100 104 87 85 20 32 20 6 51 77 95 70 75 75 60 52 61 97 155 150 127 97 67 75